Location: Bremen
(53.0833°N, 8.8000°E)
Time: 08:25:58
(UTC+02:00)

ACS3 Solar Sail - Visible Passes

Search period start: 16 July 2024 00:00
Search period end: 26 July 2024 00:00
Orbit: 993 x 1023 km, 97.4° (Epoch: 15 July)

Date Brightness Start Highest point End Pass type
(mag) Time Alt. Az. Time Alt. Az. Time Alt. Az.
16 Jul 7.1 00:23:26 10° WSW 00:27:00 16° W 00:30:35 10° NW visible
16 Jul 5.8 23:10:27 10° SSW 23:16:20 44° W 23:22:18 10° NNW visible
17 Jul 6.6 23:46:02 10° SW 23:51:08 26° W 23:56:18 10° NNW visible
18 Jul 5.1 22:34:39 10° S 22:40:51 71° WSW 22:47:08 10° NNW visible
19 Jul 7.1 00:22:42 10° WSW 00:26:10 15° W 00:29:39 10° NW visible
19 Jul 5.9 23:09:37 10° SSW 23:15:29 43° W 23:21:25 10° NNW visible
20 Jul 6.6 23:45:15 10° SW 23:50:18 25° W 23:55:24 10° NNW visible
21 Jul 5.2 22:33:47 10° S 22:39:59 70° WSW 22:46:17 10° NNW visible
22 Jul 7.1 00:21:59 10° WSW 00:25:20 15° W 00:28:42 10° NW visible
22 Jul 5.9 23:08:47 10° SSW 23:14:38 42° W 23:20:33 10° NNW visible
23 Jul 6.6 23:44:27 10° SW 23:49:27 25° W 23:54:30 10° NNW visible
24 Jul 5.2 22:32:56 10° S 22:39:07 68° W 22:45:25 10° NNW visible
25 Jul 7.1 00:21:16 10° WSW 00:24:30 14° W 00:27:45 10° NW visible
25 Jul 6.0 23:07:57 10° SSW 23:13:46 41° W 23:19:40 10° NNW visible
